| time (UTC) | temp C | wind direction | speed KPH | gust KPH | rain 1hr cm | rain 24hr cm | rain mn cm | humidity % | barometer mb |
| 20260505094612 | 37 | 49 | 3.2 | 0.0 | 0.00 | 0.00 | 0.00 | 15 | 1005.0 |
| 20260505091608 | 36 | 39 | 1.6 | 0.0 | 0.00 | 0.00 | 0.00 | 15 | 1006.0 |
| 20260505084603 | 36 | 39 | 1.6 | 0.0 | 0.00 | 0.00 | 0.00 | 15 | 1006.0 |
| 20260505081558 | 36 | 11 | 1.6 | 0.0 | 0.00 | 0.00 | 0.00 | 16 | 1007.0 |
| 20260505074554 | 36 | 11 | 1.6 | 0.0 | 0.00 | 0.00 | 0.00 | 16 | 1007.0 |
| 20260505071550 | 35 | 337 | 4.8 | 0.0 | 0.00 | 0.00 | 0.00 | 18 | 1009.0 |
| 20260505064545 | 35 | 337 | 4.8 | 0.0 | 0.00 | 0.00 | 0.00 | 18 | 1009.0 |
| 20260505061542 | 33 | 318 | 9.7 | 0.0 | 0.00 | 0.00 | 0.00 | 23 | 1010.0 |
| 20260505054537 | 33 | 318 | 9.7 | 0.0 | 0.00 | 0.00 | 0.00 | 23 | 1010.0 |
| 20260505051533 | 31 | 308 | 12.9 | 0.0 | 0.00 | 0.00 | 0.00 | 31 | 1011.0 |
| 20260505041524 | 28 | 296 | 12.9 | 0.0 | 0.00 | 0.00 | 0.00 | 44 | 1011.0 |
| 20260505034520 | 28 | 296 | 12.9 | 0.0 | 0.00 | 0.00 | 0.00 | 44 | 1011.0 |
| 20260505031514 | 26 | 280 | 11.3 | 0.0 | 0.00 | 0.00 | 0.00 | 60 | 1011.0 |
| 20260505024510 | 26 | 280 | 11.3 | 0.0 | 0.00 | 0.00 | 0.00 | 60 | 1011.0 |
| 20260505021505 | 23 | 270 | 11.3 | 0.0 | 0.00 | 0.00 | 0.00 | 76 | 1011.0 |
| 20260505014501 | 23 | 270 | 11.3 | 0.0 | 0.00 | 0.00 | 0.00 | 76 | 1011.0 |
| 20260505011456 | 22 | 263 | 8.0 | 0.0 | 0.00 | 0.00 | 0.00 | 86 | 1010.0 |
| 20260505004452 | 22 | 263 | 8.0 | 0.0 | 0.00 | 0.00 | 0.00 | 83 | 1010.0 |
| 20260505001447 | 21 | 271 | 9.7 | 0.0 | 0.00 | 0.00 | 0.00 | 85 | 1009.0 |
| 20260504234443 | 21 | 274 | 8.0 | 0.0 | 0.00 | 0.00 | 0.00 | 85 | 1009.0 |
| 20260504231438 | 22 | 275 | 11.3 | 0.0 | 0.00 | 0.00 | 0.00 | 86 | 1009.0 |
| 20260504224434 | 22 | 275 | 11.3 | 0.0 | 0.00 | 0.00 | 0.00 | 86 | 1009.0 |
| 20260504221429 | 22 | 271 | 14.5 | 0.0 | 0.00 | 0.00 | 0.00 | 85 | 1008.0 |
| 20260504214425 | 22 | 271 | 14.5 | 0.0 | 0.00 | 0.00 | 0.00 | 85 | 1008.0 |
| 20260504211420 | 22 | 275 | 16.1 | 0.0 | 0.00 | 0.00 | 0.00 | 82 | 1008.0 |
| 20260504204416 | 22 | 275 | 16.1 | 0.0 | 0.00 | 0.00 | 0.00 | 82 | 1008.0 |
| 20260504201411 | 23 | 280 | 16.1 | 0.0 | 0.00 | 0.00 | 0.00 | 77 | 1009.0 |
| 20260504194407 | 23 | 280 | 16.1 | 0.0 | 0.00 | 0.00 | 0.00 | 77 | 1009.0 |
| 20260504191402 | 24 | 280 | 16.1 | 0.0 | 0.00 | 0.00 | 0.00 | 73 | 1009.0 |
| 20260504181352 | 25 | 278 | 16.1 | 0.0 | 0.00 | 0.00 | 0.00 | 67 | 1009.0 |
| 20260504174347 | 25 | 290 | 17.7 | 0.0 | 0.00 | 0.00 | 0.00 | 67 | 1009.0 |
| 20260504171343 | 26 | 278 | 17.7 | 0.0 | 0.00 | 0.00 | 0.00 | 59 | 1009.0 |
| 20260504141315 | 30 | 272 | 32.2 | 0.0 | 0.00 | 0.00 | 0.00 | 34 | 1007.0 |